Tracking 18852 objects as of 24-Nov-2017
HD Live streaming from Space Station
objects crossing your sky now

SL-8 R/B

Track SL-8 R/B now!
10-day predictions


NORAD ID: 20578
Int'l Code: 1990-036B
Perigee: 975.5 km
Apogee: 992.3 km
Inclination: 82.9 °
Period: 104.6 minutes
Semi major axis: 7354 km
RCS: 4.8041 m2 (large)
Launch date: April 20, 1990
Source: Commonwealth of Independent States (former USSR) (CIS)
Launch site: PLESETSK MISSILE AND SPACE COMPLEX (PKMTR)

Note: This is a ROCKET BODY
aabbcc
Your satellite tracking list
Your tracking list is empty




NASA's NSSDC Master Catalog

Two Line Element Set (TLE):
1 20578U 90036B   17328.27167602 +.00000051 +00000-0 +36988-4 0  9996
2 20578 082.9454 241.0495 0011439 248.0286 223.1654 13.76370892385712
Source of the keplerian elements: AFSPC